Regional Weather Roundup
Issued by NWS Pendleton, OR

Home | Current Version | Previous Version | Text Only | Print | Product List | Glossary On
Versions: 1 2 3 4 5 6 7 8 9 10 11 12 13 14 15 16 17 18 19 20 21 22 23 24 25 26 27 28 29 30 31 32 33 34 35 36 37 38 39 40 41 42 43 44 45 46 47 48 49 50
000
ASUS46 KPDT 280125
RWRPDT
PENDLETON REGIONAL WEATHER ROUNDUP
NATIONAL WEATHER SERVICE PENDLETON OREGON
600 PM PDT MON JUL 27 2015

NOTE: FAIR INDICATES FEW OR NO CLOUDS BELOW 12,000 FEET WITH NO
SIGNIFICANT WEATHER AND/OR OBSTRUCTIONS TO VISIBILITY.

# INDICATES UNOFFICIAL STATION AND DATA

WAZ520-280210-
EAST SLOPES OF WASHINGTON CASCADES

CITY            SKY/WX      TMP DP  RH  WIND    PRES   REMARKS
#BULLFROG 2SW   N/A         64  42  45  N5      27.78R
#BUMPING DAM    N/A         60  N/A N/A S1      N/A
#CLE ELUM HS    N/A         65  44  46  W10     30.10S
#CLE ELUM LAKE  N/A         63  45  52  CALM    30.11R
#CLIFFDEL 2NW   N/A         61  40  46  NW7G25  N/A
#GLENWOOD       N/A         71  47  42  S5      30.09S
#MANASTASH CYN  N/A         63  37  38  N2      30.12R
#NELSON         N/A         65  45  48  CALM    30.14R
#NELSON 3SW     N/A         61  43  51  CALM    30.34R
#NILE           N/A         66  42  42  SW6G24  29.39R
#RONALD 2NW     N/A         67  46  47  N3      30.05S
#SNOWDEN        N/A         66  28  24  NW3     N/A
#TEANAWAY 4NE   N/A         68  47  47  W3      N/A
#TROUT LAKE 1NE N/A         68  45  44  W12     30.11S
$$

WAZ521-280210-
SIMCOE HIGHLANDS

CITY            SKY/WX      TMP DP  RH  WIND    PRES   REMARKS
#BICKLETON HS   N/A         68  31  25  NE2     N/A
#CENTERVILLE 4W N/A         72  46  39  NW21    29.87R
#CENTERVILLE 1SWN/A         71  47  42  W21     30.03S
#GOLDENDALE     N/A         74  44  34  W17G30  N/A
#GOLDENDALE 1NE N/A         72  32  23  SW3     N/A
#GOLDENDALE 5WNWN/A         71  44  38  W20     30.06R
#GOODNOE HILLS  N/A         75  46  36  SW25G32 N/A
#LYLE 6NE       N/A         70  48  46  W13G26  30.07S
$$

WAZ026-280210-
KITTITAS VALLEY

CITY            SKY/WX      TMP DP  RH  WIND    PRES   REMARKS
ELLENSBURG AP   PTCLDY      72  41  33  NW26G40 30.10S
YTC-OPS AREA    N/A         64  36  35  W35G45  30.09S
#ELLENSBURG CWU N/A         70  43  38  N15     30.02R
#ELLENSBURG 3NE N/A         68  45  44  N15G25  30.09S
#ELLENSBURG 1E  N/A         69  39  33  W1      N/A
#KITTITAS 3S    N/A         68  45  44  NW17G25 30.03S
#THORP 6N       N/A         65  44  46  NW26G38 30.09S
$$

WAZ027-280210-
YAKIMA VALLEY

CITY            SKY/WX      TMP DP  RH  WIND    PRES   REMARKS
SUNNYSIDE AP    PTCLDY      76  42  30  W13     30.05S
YAKIMA AIRPORT  PTCLDY      78  40  26  NW28G41 30.09R
#DONALD 2NE     N/A         78  10   7  W6      28.92R
#GRANDVIEW      N/A         79  38  23  NW2     30.04S
#MABTON         N/A         77  45  32  NW6     30.04F
#MOXEE 2E       N/A         72  15  11  NW16    29.96R
#NACHES 2SW     N/A         69  44  40  W9      30.11S
#OUTLOOK DOT    N/A         N/A N/A N/A NW12    N/A
#SELAH 8E       N/A         73  38  28  W16     N/A
#TERRACE HTS    N/A         78  43  29  NW8     30.01R
#TOPPENISH      N/A         76  42  30  VRB10   29.96R
#WAPATO 4NE     N/A         78  10   7  W6      28.92R
#WEST VALLEY    N/A         73  41  31  NW12    30.04R
#WHITE SWAN 5E  N/A         78  47  34  NW7     30.04R
#WILEY CITY 3W  N/A         78  34  20  CALM    30.06R
$$

WAZ028-280210-
LOWER COLUMBIA BASIN...WASHINGTON

CITY            SKY/WX      TMP DP  RH  WIND    PRES   REMARKS
PASCO           PTCLDY      83  40  22  VRB3    30.04S
#BASIN CITY 5SW N/A         78  54  43  CALM    30.02F
#BENTON CITY    N/A         78  43  29  W7      29.92F
#CONNELL 5N     N/A         79  40  25  W6      30.01S
#CONNELL 5NW    N/A         77  46  33  SW5     29.97F
#ELTOPIA 6NW    N/A         75  50  41  S7      29.01S
#KAHLOTUS       N/A         75  39  27  N14G24  30.01S
#KENNEWICK      N/A         64  42  45  N5      27.78R
#KENNEWICK 3S   N/A         79  46  31  NW1     30.02F
#PASCO-BROADMOORN/A         80  39  23  SW6     29.92S
#PATERSON       N/A         79  48  34  SW10    30.01F
#PROSSER        N/A         79  37  22  W8      30.03R
#SAGEMOOR 2W    N/A         79  50  36  CALM    29.87S
#TOUCHET 2S     N/A         80  47  31  W1      30.01S
#WEST PASCO     N/A         81  45  28  SW2     30.05S
$$

WAZ029-280210-
FOOTHILLS OF THE BLUES...WASHINGTON

CITY            SKY/WX      TMP DP  RH  WIND    PRES   REMARKS
WALLA WALLA AP  PTCLDY      76  37  24  SW3     30.07F
#DAYTON SCHOOL  N/A         73  35  25  SW5     30.07R
#LOWDEN 2SE     N/A         79  45  30  W3      30.01S
#PLEASANT VIEW 1N/A         74  38  27  SW7     30.07R
#PRESCOTT       N/A         78  44  30  CALM    30.02S
#SUDBURY        N/A         79  N/A N/A CALM    N/A
#WHITMAN COLLEGEN/A         75  43  32  SW3     30.08F
#WAITSBURG 8N   N/A         75  21  13  S7      29.88S
#WALLA WALLA U  N/A         77  43  30  CALM    30.02F
#WHITMAN MISSIONN/A         78  44  30  N5      30.03F
$$

WAZ030-280210-
BLUE MOUNTAINS...WASHINGTON

CITY            SKY/WX      TMP DP  RH  WIND    PRES   REMARKS
$$

ORZ009-041-WAZ024-280210-
COLUMBIA RIVER GORGE

CITY            SKY/WX      TMP DP  RH  WIND    PRES   REMARKS
HOOD RIVER AP   PTCLDY      75  45  34  W7      30.15S
THE DALLES AP   SUNNY       78  44  30  W21G35  30.10R
#ARLINGTON AIRPON/A         76  48  37  W18     29.81R
#MOSIER 1S      N/A         73  34  24  NW9     30.14S
#MURDOCK        N/A         76  51  42  W20G26  30.10S

$$

ORZ510-280210-
NORTH CENTRAL OREGON

CITY            SKY/WX      TMP DP  RH  WIND    PRES   REMARKS
#CHENOWITH 1W   N/A         69  43  39  W31     N/A
#COW CYN RST AREN/A         69  N/A N/A W8      N/A
#DUFUR 9E       N/A         66  43  43  W24G33  30.16S
#GRASS VALLEY 1SN/A         70  44  39  NW20G26 30.12F
#MAUPIN SCHOOL  N/A         74  45  35  N6      30.13R
#MORO SCHOOL    N/A         70  50  49  W17G28  30.14R
#SHANIKO 4NW    N/A         64  37  37  NW12    30.19R
#TYGH VALLEY 2NEN/A         72  44  37  N13     30.10R
#WAPANITIA AIRPON/A         70  43  38  W9      30.12R
#WASCO AIRPORT  N/A         73  42  33  W13     N/A
#WASCO 5NE      N/A         73  47  40  CALM    30.08R
$$

ORZ511-280210-
CENTRAL OREGON

CITY            SKY/WX      TMP DP  RH  WIND    PRES   REMARKS
BEND AIRPORT    SUNNY       70  34  26  N9      30.18R
MADRAS AIRPORT  SUNNY       72  34  25  N17     30.19R
PRINEVILLE AP   SUNNY       72  34  25  N15     30.17R
REDMOND AIRPORT SUNNY       72  36  27  N8      30.16R
#BEND 1SW       N/A         68  34  28  N8      N/A
#BEND-AWBREY    N/A         74  37  26  N2      30.10S
#BEND-KIM LN    N/A         72  37  28  N3      30.15R
#CROOKED RVR RANN/A         69  40  35  E10     30.08R
#CULVER         N/A         69  39  33  N7      30.13R
#LAKE BILLY CHINN/A         71  -3   5  NE8     30.17S
#POWELL BUTTE 3EN/A         70  39  32  N8      N/A
#POWELL BUTTE   N/A         70  40  34  SE3     29.80R
#PRINEVILLE 3N  N/A         69  44  40  NW9     30.04R
#WARM SPRINGS   N/A         73  43  34  SW12    30.10S

$$


ORZ509-280210-
EAST SLOPES OF OREGON CASCADES

CITY            SKY/WX      TMP DP  RH  WIND    PRES   REMARKS
#CAMP SHERMAN   N/A         69  34  27  N1      30.14R
#LA PINE 4NW    N/A         69  42  37  SW5     30.14R
#SISTERS AIRPOR N/A         70  45  41  N5      30.17S
#SISTERS 1NW    N/A         69  35  28  N10     N/A
#SISTERS 3N     N/A         70  37  30  CALM    30.28S
#SUNRIVER       N/A         70  36  29  N1      29.99R
#TUMALO 3W      N/A         69  35  28  N9      29.99S
#WANOGA BUTTE D N/A         57  32  38  E6      N/A

$$

ORZ044-280210-
LOWER COLUMBIA BASIN...OREGON

CITY            SKY/WX      TMP DP  RH  WIND    PRES   REMARKS
HERMISTON       SUNNY       80  41  25  W7      30.06R
#BOARDMAN SCHOOLN/A         79  45  30  SW8     30.05S
#BOARDMAN 8SW   N/A         79  48  34  W13     30.03S
#ECHO 8SW       N/A         79  44  29  W3      30.07S
#IONE SCHOOL    N/A         76  41  28  W10     30.05R
#IRRIGON 4NW    N/A         82  45  27  S10     N/A
#UMATILLA       N/A         81  45  28  SW7     29.96S
$$

ORZ507-280210-
NORTHERN FOOTHILLS OF THE BLUES

CITY            SKY/WX      TMP DP  RH  WIND    PRES   REMARKS
PENDLETON AIRPT PTCLDY      75  36  24  NW10    30.09S
#ADAMS 3WNW     N/A         73  40  30  N5      30.04S
#ATHENA         N/A         73  41  31  W5      30.07S
#CAYUSE         N/A         74  41  30  SW2     30.04S
#HELIX SCHOOL   N/A         74  41  30  W2      30.05S
#HELIX 3N       N/A         72  38  29  N1      30.06F
#HOLDMAN 5SE    N/A         75  41  29  W2      30.09S
#HOLDMAN 6E     N/A         75  42  31  NW7     29.86S
#M-FREEWATER 5SEN/A         74  44  34  CALM    30.08S
#PENDLETON DNTN N/A         77  38  24  NW2     30.05S
#PDT AQUATIC CTRN/A         80  44  28  NW3     30.06S
#PDT SUNRIDGE   N/A         77  40  26  NW1     30.09S
#PENDLETON 7NW  N/A         76  47  36  CALM    N/A
#PILOT ROCK     N/A         73  37  27  W7      30.11S
#TUTUILLA       N/A         75  40  28  W7      30.06S
#UMAPINE 2E     N/A         78  45  31  CALM    30.03S
#WESTON SCHOOL  N/A         71  35  27  NW3     29.98S

$$

ORZ508-280210-
SOUTHERN FOOTHILLS OF THE BLUES

CITY            SKY/WX      TMP DP  RH  WIND    PRES   REMARKS
#AJAX           N/A         71  35  27  W12     30.06S
#CONDON SCHOOL  N/A         69  40  35  NW8     30.11R
#CONDON 5W      N/A         66  34  30  NW13    30.14R
#HEPPNER EOC    N/A         73  40  30  W1      30.00S
#HEPPNER 4NE    N/A         68  37  32  NW8     30.08R
#LEXINGTON 2SE  N/A         77  43  30  NW14    30.08R
#OLEX 4N        N/A         74  43  33  W10G28  30.07S
#RUGGS 5NE      N/A         72  41  33  W7      30.33S
#RUGGS 2SW      N/A         70  38  31  N8      30.09S

$$

ORZ502-503-280210-
BLUE MOUNTAINS

CITY            SKY/WX      TMP DP  RH  WIND    PRES   REMARKS
MEACHAM         MOCLDY      63  36  36  VRB3    30.17R
#HEPPNER 15SE   N/A         62  37  39  NW1     30.10R
#LONG CREEK HS  N/A         65  39  38  CALM    30.12R
#PIKES PEAK     N/A         63  36  36  W13     27.99S
#TOLLGATE       N/A         53  37  54  CALM    30.04R
#TROY SCHOOL    N/A         74  41  30  N3      29.87R
#UKIAH          N/A         66  38  36  SW9     30.11S
#WESTON 4E      N/A         66  38  36  SW2     30.03S
$$

ORZ505-280210-
JOHN DAY BASIN

CITY            SKY/WX      TMP DP  RH  WIND    PRES   REMARKS
JOHN DAY        SUNNY       71  32  24  NW12    30.16R
#JOHN DAY KJDY  N/A         73  33  23  W5      30.13F
#DAYVILLE SCHOOLN/A         75  30  19  NW7     30.09R
#MITCHELL       N/A         72  41  33  N2      30.29S
#MONUMENT HS    N/A         74  36  25  N10     30.09S
#MT. VERNON 5SE N/A         66  34  30  N2      30.12R
#WINLOCK        N/A         72  37  28  CALM    30.22R
$$

ORZ506-280210-
OCHOCO AND JOHN DAY HIGHLANDS

CITY            SKY/WX      TMP DP  RH  WIND    PRES   REMARKS
#HORSE RIDGE DO N/A         69  31  24  NW7     N/A
#KEYES SMT DOT  N/A         66  33  29  N12     N/A
#PAULINA SCHOOL N/A         71  29  21  NW2     30.10S
#PINE MTN OBS   N/A         59  33  37  N6      N/A
#PRAIRIE CITY   N/A         71  31  23  NW1     30.01S
#SENECA         N/A         65  N/A N/A NW6     N/A
#SENECA 9NW     N/A         65  34  31  N1      30.03R
$$

ORZ049-280210-
GRANDE RONDE VALLEY

CITY            SKY/WX      TMP DP  RH  WIND    PRES   REMARKS
LA GRANDE       MOCLDY      70  32  24  N14     30.13R
#COVE           N/A         68  43  40  W1      30.15R
#COVE SCHOOL    N/A         68  41  37  CALM    30.15R
#COVE 6NW       N/A         65  37  35  NW1     30.11R
#ELGIN 3N       N/A         68  36  31  NW2     30.10S
#ELGIN 1E       N/A         69  39  33  NW2     N/A
#IMBLER SCHOOL  N/A         67  38  34  NW6     30.06S
#ISLAND CITY 4N N/A         77  53  43  NW1     30.19F
#LA GRANDE ELEM N/A         67  38  34  N2      30.14R
#UNION 1S       N/A         68  39  35  NW5     29.97R
$$

ORZ050-280210-
WALLOWA COUNTY

CITY            SKY/WX      TMP DP  RH  WIND    PRES   REMARKS
JOSEPH AIRPORT  PTCLDY      63  32  31  N8      30.17S
#IMNAHA SCHOOL  N/A         68  43  40  N2      30.08R
#IMNAHA 10S     N/A         64  41  43  NE2     30.10R
#JOSEPH 3N      N/A         61  33  35  NW13    30.16R
#JOSEPH 3W      N/A         58  34  40  CALM    30.00S
#LOSTINE        N/A         66  39  37  CALM    29.86R
#MT HOWARD 8000 N/A         42  32  67  NW7     30.26S
#PROMISE 1S     N/A         62  38  41  SE9     30.18R
#WALLOWA SCHOOL N/A         66  38  36  NW2     30.09R



$$



USA.gov is the U.S. government's official web portal to all federal, state and local government web resources and services.